Location: Br�ttisellen
(47.4227°N, 8.6287°E)
Time: 08:01:42
(UTC+00:00)

SL-16 R/B - Pass Details

Date: 09 April 2020
Orbit: 842 x 846 km, 71.0° (Epoch: 02 June)

Event Time Altitude Azimuth Distance (km) Brightness Sun altitude
Rises 23:13:20 0° 328° (NNW) 3,414 6.2 -34.5°
Reaches altitude 10° 23:15:52 10° 323° (NW) 2,476 5.2 -34.5°
Enters shadow 23:18:51 30° 306° (NW) 1,483 3.7 -34.5°
